Regional Weather Roundup
Issued by NWS

Home | Current Version | Previous Version | Text Only | Print | Product List | Glossary On
Versions: 1 2 3 4 5 6 7 8 9 10 11 12 13 14 15 16 17 18 19 20 21 22 23 24 25 26 27 28 29 30 31 32 33 34 35 36 37 38 39 40 41 42 43 44 45 46 47 48 49 50
000
ASUS42 KTBW 021717
RWRFL
FLORIDA REGIONAL WEATHER ROUNDUP
NATIONAL WEATHER SERVICE TAMPA BAY RUSKIN FL
100 PM EDT SUN AUG 02 2015

NOTE: "FAIR" INDICATES FEW OR NO CLOUDS BELOW 12,000 FEET WITH NO
SIGNIFICANT WEATHER AND/OR OBSTRUCTIONS TO VISIBILITY.


FLZ001>010-012>015-112-114-115-021800-
PANHANDLE FLORIDA

CITY           SKY/WX    TMP DP  RH WIND       PRES   REMARKS
PENSACOLA      SUNNY     90  74  59 N8        29.89F HX  99
PENSACOLA NAS  MOSUNNY   91  73  55 VRB7      29.88F HX  99
MILTON NAS     MOSUNNY   91  73  55 N6        29.90  HX  99
CRESTVIEW      MOSUNNY   93  74  53 NE7       29.91S HX 103
DUKE FIELD     MOSUNNY   92  71  50 NE10G17   29.89S HX  98
VALPARAISO     MOSUNNY   91  73  55 NE9       29.88S HX  99
MARY ESTHER    SUNNY     91  71  51 N10       29.87S HX  98
TRI COUNTY     PTSUNNY   86  75  69 NE5       29.90S HX  95
PANAMA CITY    PTSUNNY   87  74  64 N13       29.87F HX  95
TYNDALL AFB    CLOUDY    84  75  73 N9        29.87F
APALACHICOLA   CLOUDY    88  76  67 N12       29.86S HX  99

STATION/POSITION SKY/WX   TEMP    WIND        PRES    WAVE   SWELL
                          AIR SEA DIR/SP/G            HT/PER HT/PER
                          (F)     (DEG/KT/KT) (MB)    (FT/S) (FT/S)
30.1N   87.6W              83 87   60/  4/  6 1012.0R   1/ 5   2/ 5
29.2N   88.2W              87 87  330/  8/ 10 1013.0R   2/ 5   2/ 5
28.8N   86.0W              83 86  290/  8/ 14 1011.9R   4/ 6   3/ 6
PANAMA CITY BEAC           84 86   50/ 10/ 13 1011.6R
CAPE SAN BLAS    NOT AVBL
TOWER C                    80     340/  8/  9 1011.0S
28.5N   84.5W              80 84  230/ 25/ 29 1010.8F   7/ 8

$$
FLZ011-016>038-118-127-128-134-139-239-021800-
NORTH FLORIDA

CITY           SKY/WX    TMP DP  RH WIND       PRES   REMARKS
MARIANNA       CLOUDY    81  76  84 N10       29.89F
TALLAHASSEE    PTSUNNY   86  74  67 N9        29.85S
PERRY          CLOUDY    81  81 100 NE6       29.84F
CROSS CITY       N/A     81  79  94 S17       29.84F
LAKE CITY      CLOUDY    82  77  83 SE3       29.88F
GAINESVILLE    RAIN      75  73  93 SE6       29.90F FOG
MAYPORT NAS    PTSUNNY   88  72  58 S14G20    29.91S
JACKSONVILLE   HVY RAIN  80  75  84 S6        29.90S
JAX NAS        PTSUNNY   90  72  55 S15       29.91F HX  97
JAX CRAIG      CLOUDY    87  72  60 SW12      29.91S
JAX CECIL      PTSUNNY   86  73  66 S12       29.90F
FERNANDINA BEA PTSUNNY   88  72  58 S7        29.90S
ST AUGUSTINE   PTSUNNY   86  73  65 SW10G18   29.92F

STATION/POSITION SKY/WX   TEMP    WIND        PRES    WAVE   SWELL
                          AIR SEA DIR/SP/G            HT/PER HT/PER
                          (F)     (DEG/KT/KT) (MB)    (FT/S) (FT/S)
SHELL POINT                81      30/  5/ 10   N/A
KEATON BEACH               81     180/  6/  7 1010.0F
CEDAR KEY                  80     220/ 16/ 23 1011.4F
FERNANDINA                 81 83  120/  6/ 10 1012.4S
30.7N   81.3W                 83                N/A     3/ 5   2/12
MAYPORT                    84 81  220/  6/ 11 1013.2F
31.4N   80.9W              80 83  180/ 12/ 14 1013.6R   3/ 5   2/ 6
ST AUGUSTINE               86 81  190/ 16/ 20 1013.6F

$$
FLZ040-043>046-052-053-057-058-063-144-021800-
INTERIOR CENTRAL FLORIDA

CITY           SKY/WX    TMP DP  RH WIND       PRES   REMARKS
OCALA          PTSUNNY   82  75  78 S20G32    29.91F
THE VILLAGES     N/A     84  84 100 S15G22    29.84S HX 104
LEESBURG       PTSUNNY   81  70  69 S20G30    29.95S
SANFORD        CLOUDY    81  73  76 SW6       29.95F
ORLANDO EXEC   PTSUNNY   83  76  79 CALM      29.95F
ORLANDO INTL   PTSUNNY   84  76  76 NW3       29.95F
KISSIMMEE      CLOUDY    86  77  74 S12       29.95F HX  97
WINTER HAVEN   LGT RAIN  74  72  93 S5        29.99R FOG
LAKELAND       CLOUDY    73  72  94 CALM      29.97F
BARTOW         PTSUNNY   73  72  94 S14       29.99R
OKEECHOBEE       N/A    N/A N/A N/A S9        29.98F

$$
FLZ041-047-054-059-064-141-147-021800-
EAST CENTRAL FLORIDA

CITY           SKY/WX    TMP DP  RH WIND       PRES   REMARKS
ORMOND BEACH   MOSUNNY  N/A N/A N/A SW14      29.94F
DAYTONA BEACH  PTSUNNY   85  72  65 SW10      29.95F
DELAND           N/A     84  70  61 S13       29.96S
NEW SMYRNA BEA PTSUNNY   79  73  83 S7        29.96F
JFK SPACE CTR  PTSUNNY   90  75  60 S10       29.94F HX 100
TITUSVILLE     PTSUNNY   90  73  58 S17       29.95F HX  98
CAPE CANAVERAL MOSUNNY   86  78  77 S10       29.95S HX  98
PATRICK AFB    MOSUNNY   84  77  79 SE13      29.95F HX  95
MELBOURNE      MOSUNNY   88  73  61 S13       29.96S HX  95
VERO BEACH     PTSUNNY   90  73  57 S12       29.97F HX  98
FT PIERCE      PTSUNNY   89  75  63 S9        29.97S HX  99

STATION/POSITION SKY/WX   TEMP    WIND        PRES    WAVE   SWELL
                          AIR SEA DIR/SP/G            HT/PER HT/PER
                          (F)     (DEG/KT/KT) (MB)    (FT/S) (FT/S)
28.5N   80.2W              82 83  180/ 16/ 19 1014.9S
28.9N   78.5W              83 84  160/ 14/ 14 1016.2S
TRIDENT PIER               81 78  150/  6/  8 1015.4R
28.4N   80.5W                 78                N/A     2/ 4
27.5N   80.2W                 78                N/A     1/ 9

$$
FLZ050-056-061-142-242-148-248-149-249-151-251-155-255-
160-260-021800-
WEST CENTRAL FLORIDA

CITY           SKY/WX    TMP DP  RH WIND       PRES   REMARKS
CRYSTAL RIVER  PTSUNNY   81  72  74 S7        29.91F
INVERNESS      LGT RAIN  73  73 100 S7        29.94F
BROOKSVILLE    CLOUDY    79  74  84 S13       29.95S
ZEPHYRHILLS    FAIR      79  79 100 S9        29.96F
CLEARWATER     CLOUDY    79  32  18 SW10      29.95R
TAMPA INTL     LGT RAIN  78  71  79 S10       29.96R
TAMPA EXEC     CLOUDY    82  75  78 SE6       29.95F
PLANT CITY     LGT RAIN  77  77 100 S7        29.97F
MACDILL AFB    LGT RAIN  84  79  84 SW10      29.96R HX  96
PETER O KNIGHT CLOUDY    82  79  89 W6        29.96S
ST PETERSBURG  LGT RAIN  81  72  74 SW12      29.94R
SARASOTA       LGT RAIN  84  76  76 SW13      29.96R
VENICE         FAIR      81  73  78 S10G16    29.98F

STATION/POSITION SKY/WX   TEMP    WIND        PRES    WAVE   SWELL
                          AIR SEA DIR/SP/G            HT/PER HT/PER
                          (F)     (DEG/KT/KT) (MB)    (FT/S) (FT/S)
CEDAR KEY                  80     220/ 16/ 23 1011.4F
28.5N   84.5W              80 84  230/ 25/ 29 1010.8F   7/ 8
27.3N   84.2W                 83                N/A     9/ 7
CLEARWATER BEACH           81 81  230/ 18/ 24 1013.8R
MIDDLE TAMPA BAY           82     230/ 15/ 17 1014.2F
VENICE                     82 85  200/ 15/ 18 1014.6F

$$
FLZ066-069-070-075>078-162-262-165-265-021800-
SOUTHWEST FLORIDA AND KEYS

CITY           SKY/WX    TMP DP  RH WIND       PRES   REMARKS
PUNTA GORDA    CLOUDY    85  73  67 W15       29.99S
FT MYERS       PTSUNNY   90  77  65 SW8       29.96F HX 103
SOUTHWEST INTL PTSUNNY   89  76  65 SW14      29.97F HX 100
NAPLES         MOSUNNY   90  78  68 SW10      29.97S HX 104
MARCO ISLAND   MOSUNNY   90  75  62 SW7       29.98S HX 100
MARATHON       MOSUNNY   92  78  63 S8        29.99S HX 107
KEY WEST NAS   MOSUNNY   89  75  63 SW8       29.99S HX  99
KEY WEST INTL  SUNNY     88  76  67 SW7       30.00S HX  99

STATION/POSITION SKY/WX   TEMP    WIND        PRES    WAVE   SWELL
                          AIR SEA DIR/SP/G            HT/PER HT/PER
                          (F)     (DEG/KT/KT) (MB)    (FT/S) (FT/S)
VENICE                     82 85  200/ 15/ 18 1014.6F
NAPLES                        86              1016.1F
26.0N   85.6W              77 84  330/ 16/ 19 1015.4R   3/ 6   2/16
DRY TORTUGAS               86     250/  3/  4 1015.7R
NW FL BAY                  87     200/  5/  7 1015.7
SAND KEY                   85     230/  4/  6 1015.8R
SOMBRERO KEY               86     170/ 10/ 11 1016.2F
LONG KEY                   87 89  180/  9/ 10 1016.3F
MOLASSES REEF              85 87  180/  7/  8 1015.6F

$$
FLZ067-068-071>074-168-172>174-021800-
SOUTHEAST FLORIDA

CITY           SKY/WX    TMP DP  RH WIND       PRES   REMARKS
W PALM BEACH   PTSUNNY   89  75  63 S13G24    29.98F HX  99
FT LAUDER-EXEC PTSUNNY   86  69  56 SE15G24   29.98S
FT LAUDERDALE  PTSUNNY   90  76  63 SE18G25   29.97F HX 101
POMPANO BEACH  PTSUNNY   90  75  61 SE17G24   29.98F HX 100
PEMBROKE PINES PTSUNNY   88  74  63 S15G23    29.99F HX  96
OPA LOCKA      PTSUNNY   89  74  60 SE15      29.99S HX  98
MIAMI          PTSUNNY   90  74  59 SE13      29.99S HX  99
WEST KENDALL   PTSUNNY   89  73  59 SE13      29.98F HX  97
HOMESTEAD      PTSUNNY   89  75  62 SE6       29.99S HX  98

STATION/POSITION SKY/WX   TEMP    WIND        PRES    WAVE   SWELL
                          AIR SEA DIR/SP/G            HT/PER HT/PER
                          (F)     (DEG/KT/KT) (MB)    (FT/S) (FT/S)
PORT EVERGLADES            87     150/ 11/ 14 1015.4F
VIRGINIA KEY               83 87  190/ 18/ 21 1015.7R
LAKE WORTH                 84 82  170/ 12/ 14 1015.5R
SETTLEMENT POINT           86     170/ 11/ 14 1016.7F




USA.gov is the U.S. government's official web portal to all federal, state and local government web resources and services.